EW5545 Weather Reports


time (UTC)temp
F
wind
direction
speed
knots
gust
knots
rain 1hr
in
rain 24hr
in
rain mn
in
humidity
%
barometer
mb
20260503225508 54 226 0.0 0.9 0.00 0.00 0.00 69 1017.6
20260503225006 54 226 0.0 0.9 0.00 0.00 0.00 70 1017.6
20260503224506 53 226 0.9 1.7 0.00 0.00 0.00 70 1017.6
20260503224010 53 226 0.9 1.7 0.00 0.00 0.00 70 1017.6
20260503223507 53 226 0.9 2.6 0.00 0.00 0.00 70 1017.6
20260503223011 53 222 0.0 0.9 0.00 0.00 0.00 70 1017.6
20260503222507 53 222 0.0 0.0 0.00 0.00 0.00 70 1017.6
20260503221506 54 222 0.0 0.0 0.00 0.00 0.00 68 1017.6
20260503221006 54 222 0.0 0.0 0.00 0.00 0.00 67 1017.6
20260503220505 54 222 0.0 0.0 0.00 0.00 0.00 68 1017.6
20260503220009 54 222 0.0 0.9 0.00 0.00 0.00 66 1017.6
20260503215511 55 222 0.0 0.0 0.00 0.00 0.00 66 1017.6
20260503215006 56 222 0.0 0.0 0.00 0.00 0.00 65 1017.5
20260503214506 56 222 0.0 0.0 0.00 0.00 0.00 64 1017.5
20260503214007 57 222 0.0 0.0 0.00 0.00 0.00 64 1017.5
20260503213516 57 222 0.0 1.7 0.00 0.00 0.00 64 1017.5
20260503213005 57 221 0.9 2.6 0.00 0.00 0.00 64 1017.4
20260503212506 56 215 0.9 1.7 0.00 0.00 0.00 63 1017.4
20260503211507 55 203 0.0 0.9 0.00 0.00 0.00 63 1017.4
20260503211007 55 202 0.9 1.7 0.00 0.00 0.00 63 1017.4
20260503210006 54 201 0.0 0.9 0.00 0.00 0.00 63 1017.3
20260503205005 54 201 0.0 0.9 0.00 0.00 0.00 65 1017.4
20260503204510 53 201 0.0 0.9 0.00 0.00 0.00 66 1017.3
20260503204006 53 201 0.0 2.6 0.00 0.00 0.00 67 1017.4
20260503203005 54 147 0.0 1.7 0.00 0.00 0.00 65 1017.3
20260503202507 54 235 0.0 1.7 0.00 0.00 0.00 64 1017.3
20260503202005 54 235 0.9 1.7 0.00 0.00 0.00 63 1017.2
20260503201006 54 237 0.9 1.7 0.00 0.00 0.00 63 1017.2
20260503200506 54 237 0.9 1.7 0.00 0.00 0.00 64 1017.2
20260503200005 54 237 0.9 1.7 0.00 0.00 0.00 65 1017.1
20260503195506 54 237 0.9 1.7 0.00 0.00 0.00 66 1017.1
20260503194507 54 237 0.9 1.7 0.00 0.00 0.00 69 1017.0
20260503193507 54 235 1.7 1.7 0.00 0.00 0.00 68 1017.0
20260503193011 55 235 1.7 2.6 0.00 0.00 0.00 68 1017.0
20260503192506 55 235 1.7 1.7 0.00 0.00 0.00 67 1016.9
20260503192007 56 238 1.7 1.7 0.00 0.00 0.00 66 1016.9
20260503191505 56 234 1.7 1.7 0.00 0.00 0.00 65 1016.8
20260503190007 57 235 0.9 1.7 0.00 0.00 0.00 64 1016.7
20260503185005 58 237 1.7 1.7 0.00 0.00 0.00 62 1016.7
20260503184505 58 236 0.9 1.7 0.00 0.00 0.00 61 1016.7
20260503184007 59 231 1.7 1.7 0.00 0.00 0.00 59 1016.6
20260503183506 60 230 0.0 0.9 0.00 0.00 0.00 57 1016.6
20260503182507 60 230 0.9 2.6 0.00 0.00 0.00 56 1016.6
20260503182007 62 246 0.9 2.6 0.00 0.00 0.00 51 1016.6
20260503181510 63 263 0.0 0.0 0.00 0.00 0.00 48 1016.5
20260503180510 64 334 0.0 0.0 0.00 0.00 0.00 46 1016.5
20260503175505 64 333 0.0 0.0 0.00 0.00 0.00 44 1016.5
20260503175007 65 14 0.0 0.9 0.00 0.00 0.00 44 1016.5
20260503174005 65 243 0.0 0.9 0.00 0.00 0.00 43 1016.6
20260503173005 66 31 0.0 0.9 0.00 0.00 0.00 41 1016.5
20260503172008 67 31 0.9 2.6 0.00 0.00 0.00 39 1016.5
20260503171505 68 38 0.0 0.9 0.00 0.00 0.00 38 1016.5
20260503171007 68 38 0.0 1.7 0.00 0.00 0.00 38 1016.5
20260503131007 70 47 6.1 13.9 0.00 0.00 0.00 40 1017.2
20260503130506 70 51 7.8 12.2 0.00 0.00 0.00 38 1017.2
20260503110507 71 46 8.7 14.8 0.00 0.00 0.00 32 1017.5
20260503090510 69 39 6.1 12.2 0.00 0.00 0.00 34 1017.9
20260503081505 68 24 2.6 10.4 0.00 0.00 0.00 38 1017.8
20260503081011 67 43 3.5 10.4 0.00 0.00 0.00 38 1017.8
20260503080505 67 39 3.5 12.2 0.00 0.00 0.00 39 1017.8
20260503072007 65 46 4.3 7.0 0.00 0.00 0.00 42 1017.9
20260503071506 65 41 4.3 7.8 0.00 0.00 0.00 42 1017.9
20260503071006 65 38 4.3 10.4 0.00 0.00 0.00 42 1017.8
20260503070506 65 27 4.3 8.7 0.00 0.00 0.00 42 1017.8
20260503055007 61 333 2.6 5.2 0.00 0.00 0.00 45 1017.8
20260503054006 60 35 0.9 2.6 0.00 0.00 0.00 48 1017.7
20260503053507 59 290 1.7 2.6 0.00 0.00 0.00 49 1017.7
20260503053005 59 269 0.9 2.6 0.00 0.00 0.00 51 1017.6
20260503052505 58 252 0.9 2.6 0.00 0.00 0.00 51 1017.6
20260503052007 57 258 0.0 1.7 0.00 0.00 0.00 53 1017.6
20260503051507 57 261 0.9 2.6 0.00 0.00 0.00 53 1017.6
20260503051008 56 268 0.0 2.6 0.00 0.00 0.00 53 1017.6
20260503050505 56 262 0.9 2.6 0.00 0.00 0.00 54 1017.6
20260503050007 55 257 0.0 2.6 0.00 0.00 0.00 55 1017.5
20260503045506 54 244 0.0 2.6 0.00 0.00 0.00 56 1017.5
20260503045007 54 237 0.9 2.6 0.00 0.00 0.00 56 1017.5
20260503044505 54 246 0.9 2.6 0.00 0.00 0.00 57 1017.5
20260503044007 53 249 1.7 4.3 0.00 0.00 0.00 57 1017.5
20260503043507 53 231 0.9 2.6 0.00 0.00 0.00 58 1017.6
20260503043005 52 235 0.9 2.6 0.00 0.00 0.00 58 1017.6
20260503042510 52 230 0.0 1.7 0.00 0.00 0.00 58 1017.5
20260503042007 52 245 0.0 2.6 0.00 0.00 0.00 58 1017.5
20260503040507 52 256 0.0 2.6 0.00 0.00 0.00 58 1017.5
20260503035507 52 248 0.9 2.6 0.00 0.00 0.00 58 1017.5
20260503035006 52 246 0.0 4.3 0.00 0.00 0.00 58 1017.5
20260503034505 52 244 0.9 2.6 0.00 0.00 0.00 58 1017.5
20260503034007 52 241 0.9 2.6 0.00 0.00 0.00 58 1017.5
20260503033506 52 263 0.0 1.7 0.00 0.00 0.00 58 1017.5
20260503032507 52 252 0.0 2.6 0.00 0.00 0.00 58 1017.5
20260503032006 52 241 0.9 2.6 0.00 0.00 0.00 58 1017.5
20260503031008 52 239 0.0 0.9 0.00 0.00 0.00 58 1017.5
20260503030508 53 243 0.0 1.7 0.00 0.00 0.00 58 1017.5
20260503030007 53 281 0.9 2.6 0.00 0.00 0.00 57 1017.5
20260503023507 53 248 0.0 0.9 0.00 0.00 0.00 56 1017.6
20260503023006 53 254 0.0 1.7 0.00 0.00 0.00 56 1017.6
20260503022506 54 254 0.9 4.3 0.00 0.00 0.00 56 1017.7
20260503022006 53 250 1.7 4.3 0.00 0.00 0.00 56 1017.6
20260503021011 54 253 1.7 2.6 0.00 0.00 0.00 55 1017.7
20260503020507 54 247 0.9 2.6 0.00 0.00 0.00 55 1017.7
20260503020015 54 244 0.9 2.6 0.00 0.00 0.00 55 1017.7
20260503015506 54 249 1.7 4.3 0.00 0.00 0.00 55 1017.7
20260503015007 54 240 0.9 2.6 0.00 0.00 0.00 55 1017.8
20260503014007 54 224 0.9 4.3 0.00 0.00 0.00 54 1017.9
20260503013505 54 264 2.6 6.1 0.00 0.00 0.00 54 1017.9
20260503013007 54 254 1.7 5.2 0.00 0.00 0.00 54 1017.9
20260503012505 54 262 0.9 4.3 0.00 0.00 0.00 54 1018.0
20260503012007 54 263 1.7 4.3 0.00 0.00 0.00 54 1018.1
20260503011505 54 265 1.7 5.2 0.00 0.00 0.00 55 1018.1
20260503011005 54 24 0.9 4.3 0.00 0.00 0.00 55 1018.1
20260503010506 54 252 0.9 4.3 0.00 0.00 0.00 55 1018.2
20260503010005 54 254 0.9 4.3 0.00 0.00 0.00 54 1018.2
20260503005506 54 232 0.9 2.6 0.00 0.00 0.00 54 1018.3
20260503005007 54 260 0.9 2.6 0.00 0.00 0.00 54 1018.4
20260503004506 54 240 0.9 2.6 0.00 0.00 0.00 54 1018.4
20260503003506 54 245 0.9 2.6 0.00 0.00 0.00 54 1018.5
20260503003008 54 245 1.7 2.6 0.00 0.00 0.00 53 1018.5
20260503002505 54 253 1.7 2.6 0.00 0.00 0.00 53 1018.5
20260503002005 54 247 2.6 4.3 0.00 0.00 0.00 53 1018.5
20260503001507 54 263 2.6 7.0 0.00 0.00 0.00 52 1018.6
20260503001011 54 248 2.6 5.2 0.00 0.00 0.00 52 1018.6
20260503000507 54 262 1.7 2.6 0.00 0.00 0.00 51 1018.7
20260503000006 54 249 0.9 2.6 0.00 0.00 0.00 51 1018.8
20260502235507 54 271 0.9 2.6 0.00 0.00 0.00 51 1018.8
20260502234007 54 229 0.9 2.6 0.00 0.00 0.00 52 1019.0
20260502233506 54 303 0.9 4.3 0.00 0.00 0.00 52 1019.1
20260502232505 54 266 0.0 2.6 0.00 0.00 0.00 52 1019.2
20260502232006 54 260 0.9 2.6 0.00 0.00 0.00 52 1019.3
20260502231506 54 256 0.9 2.6 0.00 0.00 0.00 52 1019.3
20260502231007 53 254 0.9 2.6 0.00 0.00 0.00 53 1019.4
20260502230507 53 238 0.0 2.6 0.00 0.00 0.00 54 1019.4
20260502230007 53 260 0.9 4.3 0.00 0.00 0.00 54 1019.5